FW4650 Weather Reports


Display with metric or nautical units.
time (UTC)temp
F
wind
direction
speed
MPH
gust
MPH
rain 1hr
in
rain 24hr
in
rain mn
in
humidity
%
barometer
mb
20260502231535 55 0.0 0.0 0.00 0.00 0.00
20260502230515 55 0.0 0.0 0.00 0.00 0.00
20260502225515 55 130 6.0 11.0 0.00 0.00 0.00
20260502224535 55 43 1.0 7.0 0.00 0.00 0.00
20260502223515 55 50 1.0 6.0 0.00 0.00 0.00
20260502222535 55 57 1.0 7.0 0.00 0.00 0.00
20260502221515 55 49 4.0 7.0 0.00 0.00 0.00
20260502220535 55 25 2.0 7.0 0.00 0.00 0.00
20260502215515 56 25 0.0 3.0 0.00 0.00 0.00
20260502214516 56 0.0 0.0 0.00 0.00 0.00
20260502213515 56 0.0 0.0 0.00 0.00 0.00
20260502212515 56 0.0 0.0 0.00 0.00 0.00
20260502211515 56 0.0 0.0 0.00 0.00 0.00
20260502210515 56 0.0 0.0 0.00 0.00 0.00
20260502205515 56 0.0 0.0 0.00 0.00 0.00
20260502204515 56 0.0 0.0 0.00 0.00 0.00
20260502203535 56 0.0 0.0 0.00 0.00 0.00
20260502202515 57 0.0 0.0 0.00 0.00 0.00
20260502201515 57 0.0 0.0 0.00 0.00 0.00
20260502200515 58 0.0 0.0 0.00 0.00 0.00
20260502195515 58 0.0 0.0 0.00 0.00 0.00
20260502194515 58 0.0 0.0 0.00 0.00 0.00
20260502193515 59 0.0 0.0 0.00 0.00 0.00
20260502192535 59 0.0 0.0 0.00 0.00 0.00
20260502191515 59 0.0 0.0 0.00 0.00 0.00
20260502190515 59 0.0 0.0 0.00 0.00 0.00
20260502185535 60 307 2.0 7.0 0.00 0.00 0.00
20260502184515 60 299 4.0 8.0 0.00 0.00 0.00
20260502183515 61 299 5.0 9.0 0.00 0.00 0.00
20260502182535 62 300 5.0 10.0 0.00 0.00 0.00
20260502181515 62 303 5.0 9.0 0.00 0.00 0.00
20260502180515 63 298 5.0 9.0 0.00 0.00 0.00
20260502170515 65 268 6.0 10.0 0.00 0.00 0.00
20260502163515 65 266 8.0 12.0 0.00 0.00 0.00
20260502162515 66 266 7.0 12.0 0.00 0.00 0.00
20260502161515 66 264 5.0 8.0 0.00 0.00 0.00
20260502160515 66 265 9.0 12.0 0.00 0.00 0.00
20260502151515 68 268 9.0 14.0 0.00 0.00 0.00
20260502150515 68 255 10.0 14.0 0.00 0.00 0.00
20260502130515 69 223 12.0 18.0 0.00 0.00 0.00
20260502123515 68 226 10.0 18.0 0.00 0.00 0.00
20260502122515 68 227 11.0 16.0 0.00 0.00 0.00
20260502121515 70 225 10.0 15.0 0.00 0.00 0.00
20260502120515 69 229 13.0 17.0 0.00 0.00 0.00
20260502115515 69 222 12.0 17.0 0.00 0.00 0.00
20260502114515 69 220 12.0 18.0 0.00 0.00 0.00
20260502113515 70 221 10.0 18.0 0.00 0.00 0.00
20260502112515 69 223 8.0 14.0 0.00 0.00 0.00
20260502111535 69 242 9.0 13.0 0.00 0.00 0.00
20260502110515 69 237 7.0 11.0 0.00 0.00 0.00
20260502105515 69 236 5.0 10.0 0.00 0.00 0.00
20260502104515 69 228 8.0 11.0 0.00 0.00 0.00
20260502103515 69 230 5.0 10.0 0.00 0.00 0.00
20260502102515 66 215 3.0 6.0 0.00 0.00 0.00
20260502101515 68 205 2.0 7.0 0.00 0.00 0.00
20260502100535 66 199 4.0 7.0 0.00 0.00 0.00
20260502091515 64 193 9.0 13.0 0.00 0.00 0.00
20260502090515 65 199 10.0 13.0 0.00 0.00 0.00
20260502071515 80 202 8.0 11.0 0.00 0.00 0.00
20260502070515 80 205 8.0 14.0 0.00 0.00 0.00
20260502065515 81 194 8.0 11.0 0.00 0.00 0.00
20260502064535 80 192 9.0 12.0 0.00 0.00 0.00
20260502063515 81 193 7.0 11.0 0.00 0.00 0.00
20260502062515 81 191 6.0 10.0 0.00 0.00 0.00
20260502061515 80 176 2.0 7.0 0.00 0.00 0.00
20260502060515 79 0.0 0.0 0.00 0.00 0.00
20260502055535 80 0.0 0.0 0.00 0.00 0.00
20260502054515 78 0.0 0.0 0.00 0.00 0.00
20260502053515 78 165 0.0 3.0 0.00 0.00 0.00
20260502052515 75 166 2.0 4.0 0.00 0.00 0.00
20260502051535 73 193 4.0 9.0 0.00 0.00 0.00
20260502050515 71 171 3.0 5.0 0.00 0.00 0.00
20260502045515 69 165 3.0 5.0 0.00 0.00 0.00
20260502044515 65 171 4.0 6.0 0.00 0.00 0.00
20260502043515 60 167 7.0 9.0 0.00 0.00 0.00
20260502042515 56 179 7.0 9.0 0.00 0.00 0.00
20260502041515 53 174 5.0 7.0 0.00 0.00 0.00
20260502040515 51 163 6.0 8.0 0.00 0.00 0.00
20260502035515 51 170 5.0 7.0 0.00 0.00 0.00
20260502034515 51 167 6.0 8.0 0.00 0.00 0.00
20260502033515 51 163 6.0 8.0 0.00 0.00 0.00
20260502032515 52 159 5.0 7.0 0.00 0.00 0.00
20260502031515 52 156 2.0 5.0 0.00 0.00 0.00
20260502030516 52 159 4.0 6.0 0.00 0.00 0.00
20260502025515 52 158 5.0 7.0 0.00 0.00 0.00
20260502024515 52 0.0 0.0 0.00 0.00 0.00
20260502023515 52 0.0 0.0 0.00 0.00 0.00
20260502022515 53 156 3.0 5.0 0.00 0.00 0.00
20260502021515 53 162 3.0 6.0 0.00 0.00 0.00
20260502020515 53 150 3.0 5.0 0.00 0.00 0.00
20260502015515 53 144 0.0 3.0 0.00 0.00 0.00
20260502014515 53 146 2.0 5.0 0.00 0.00 0.00
20260502013515 53 149 3.0 4.0 0.00 0.00 0.00
20260502012515 53 132 0.0 3.0 0.00 0.00 0.00
20260502011515 54 154 1.0 3.0 0.00 0.00 0.00
20260502010515 54 0.0 0.0 0.00 0.00 0.00
20260502005535 54 0.0 0.0 0.00 0.00 0.00
20260502004515 54 0.0 0.0 0.00 0.00 0.00
20260502003515 54 0.0 0.0 0.00 0.00 0.00
20260502002515 55 150 0.0 2.0 0.00 0.00 0.00
20260502001515 55 152 1.0 2.0 0.00 0.00 0.00
20260502000515 55 156 0.0 3.0 0.00 0.00 0.00
20260501235515 56 0.0 0.0 0.00 0.00 0.00
20260501234515 56 0.0 0.0 0.00 0.00 0.00
20260501233535 56 154 4.0 6.0 0.00 0.00 0.00
20260501232515 56 0.0 0.0 0.00 0.00 0.00